User: anonymous   Login
Location: Unspecified
(0.0000°N, 0.0000°E)
Time: 12:40:27
(UTC+00:00)
Language:

APEX - Orbit

View from above orbital plane
View from above orbital plane
View from above satellite
View from above satellite

Ground track
Ground track

The orbit data is extracted from the following two-line orbital elements,

1 23191U 94046A   18289.12842369  .00005388  00000-0  16956-3 0  9996
2 23191  69.9209 167.7398 0578472 286.6581  67.1829 14.44905107186590
Epoch (UTC): 16 October 2018 03:04:55
Eccentricity: 0.0578472
inclination: 69.9209°
perigee height: 330 km
apogee height: 1154 km
right ascension of ascending node: 167.7398°
argument of perigee: 286.6581°
revolutions per day: 14.44905107
mean anomaly at epoch: 67.1829°
orbit number at epoch: 18659

The dashed part of the orbit path shows where the satellite is in the earth's shadow,  

DLR